Monterey, CA

5:58 AM PST on February 09, 2016 (GMT -0800)
Monterey Peninsula

Weather History for KMRY - July, 2014

Change the Weather History Date:

Thursday, July 31, 2014

  Actual Average Record
Temperature  
Mean Temperature 63 °F 61 °F  
Max Temperature 69 °F 67 °F 73 °F (2015)
Min Temperature 57 °F 54 °F 50 °F (2012)
Degree Days  
Heating Degree Days 2    
Month to date heating degree days 58  
Since 1 June heating degree days 170  
Since 1 July heating degree days 58  
Cooling Degree Days 0    
Month to date cooling degree days 25  
Year to date cooling degree days 68  
Since 1 June cooling degree days 26  
Growing Degree Days 13 (Base 50)    
Moisture  
Dew Point 57 °F    
Average Humidity 83    
Maximum Humidity 100    
Minimum Humidity 66    
Precipitation  
Precipitation 0.00 in - 0.02 in (2010)
Month to date precipitation 0.01  
Year to date precipitation 7.40  
Since 1 July precipitation 0.01  
Sea Level Pressure  
Sea Level Pressure 30.00 in    
Wind  
Wind Speed 4 mph (WNW)    
Max Wind Speed 12 mph    
Max Gust Speed 16 mph    
Visibility 9 miles    
Events      
T = Trace of Precipitation, MM = Missing Value Source: NWS Daily Summary

Daily Weather History Graph

Daily Weather History Graph

Search for Another Location

Airport or City:

Trip Planner

Search our weather history database for the weather conditions in past years. The results will help you decide how hot, cold, wet, or windy it might be!

Date:

Astronomy

Jul. 31, 2014 Rise Set
Actual Time 6:12 AM PDT 8:14 PM PDT
Civil Twilight 5:44 AM PDT 8:42 PM PDT
Nautical Twilight 5:09 AM PDT 9:17 PM PDT
Astronomical Twilight 4:31 AM PDT 9:54 PM PDT
Moon 10:36 AM PDT (7/31) 10:39 PM PDT (7/31)
Length of Visible Light 14h 58m
Length of Day
14h 01m
Waxing Crescent, 20% of the Moon is Illuminated
Jul 31
Waxing Crescent
Aug 3
First Quarter
Aug 10
Full
Aug 17
Last Quarter
Aug 25
New

Hourly Weather History & Observations

Time (PDT) Temp. Dew Point Humidity Pressure Visibility Wind Dir Wind Speed Gust Speed Precip Events Conditions
12:54 AM 59.0 °F 57.0 °F 93% 30.03 in 10.0 mi WSW 5.8 mph - N/A   Overcast
1:54 AM 57.9 °F 57.0 °F 97% 30.04 in 4.0 mi WSW 8.1 mph - N/A   Overcast
2:54 AM 57.9 °F 57.0 °F 97% 30.03 in 5.0 mi SSW 4.6 mph - N/A   Overcast
3:33 AM 57.2 °F 55.4 °F 94% 29.99 in 6.0 mi Calm Calm - N/A   Overcast
3:54 AM 57.0 °F 55.9 °F 96% 30.03 in 10.0 mi Calm Calm - N/A   Overcast
4:54 AM 57.0 °F 55.9 °F 96% 30.02 in 10.0 mi Calm Calm - N/A   Overcast
5:54 AM 57.0 °F 55.9 °F 96% 30.02 in 10.0 mi Calm Calm - N/A   Overcast
6:49 AM 57.2 °F 55.4 °F 94% 29.99 in 10.0 mi Calm Calm - N/A   Overcast
6:54 AM 57.9 °F 55.0 °F 90% 30.03 in 10.0 mi Calm Calm - N/A   Overcast
7:54 AM 57.9 °F 55.0 °F 90% 30.04 in 10.0 mi Calm Calm - N/A   Overcast
8:54 AM 59.0 °F 55.9 °F 90% 30.04 in 10.0 mi West 3.5 mph - N/A   Overcast
9:54 AM 60.1 °F 55.9 °F 86% 30.04 in 10.0 mi West 3.5 mph - N/A   Overcast
10:54 AM 62.1 °F 57.0 °F 84% 30.05 in 10.0 mi Variable 5.8 mph - N/A   Overcast
11:22 AM 64.4 °F 57.2 °F 77% 30.01 in 10.0 mi NW 4.6 mph - N/A   Scattered Clouds
11:54 AM 64.9 °F 57.0 °F 75% 30.03 in 10.0 mi NW 5.8 mph - N/A   Scattered Clouds
12:54 PM 64.0 °F 55.9 °F 75% 30.02 in 10.0 mi NW 6.9 mph - N/A   Clear
1:54 PM 66.0 °F 57.0 °F 73% 30.01 in 10.0 mi NW 6.9 mph - N/A   Clear
2:54 PM 64.9 °F 57.9 °F 78% 30.00 in 10.0 mi NNW 8.1 mph - N/A   Clear
3:54 PM 69.1 °F 57.9 °F 68% 29.98 in 10.0 mi NNW 9.2 mph - N/A   Clear
4:54 PM 66.9 °F 57.0 °F 70% 29.97 in 10.0 mi NW 8.1 mph - N/A   Clear
5:54 PM 64.9 °F 57.0 °F 75% 29.97 in 10.0 mi WNW 8.1 mph - N/A   Clear
6:54 PM 64.9 °F 57.0 °F 75% 29.96 in 10.0 mi NW 8.1 mph - N/A   Clear
7:37 PM 62.6 °F 57.2 °F 82% 29.94 in 10.0 mi WNW 4.6 mph - N/A   Partly Cloudy
7:52 PM 60.8 °F 57.2 °F 88% 29.94 in 10.0 mi WNW 3.5 mph - N/A   Mostly Cloudy
7:54 PM 61.0 °F 57.0 °F 87% 29.97 in 10.0 mi NW 4.6 mph - N/A   Mostly Cloudy
8:35 PM 60.8 °F 57.2 °F 88% 29.94 in 8.0 mi West 4.6 mph - N/A   Overcast
9:54 PM 60.1 °F 57.0 °F 90% 29.98 in 8.0 mi Variable 3.5 mph - N/A   Overcast
10:54 PM 59.0 °F 57.0 °F 93% 29.98 in 7.0 mi Calm Calm - N/A   Overcast
11:39 PM 57.2 °F 57.2 °F 100% 29.94 in 1.5 mi Calm Calm - N/A   Overcast
11:54 PM 57.9 °F 57.0 °F 97% 29.97 in 3.0 mi Calm Calm - N/A   Overcast